• In Denmark
  • List of Countries
  • For 7 days
  • Water Temperature
  • Satellite Maps
  • Weather Map
  • Weather Widgets
  • user-avatar
    Login

    Hourly Weather Kanye

    Today, 26 February, Monday

    Time Temperature Precipitation Wind Pressure Humidity
    00:00 +21°C° 0 mm 2 mps 649 mmHg 61%
    01:00 +20°C° 0 mm 2 mps 649 mmHg 63%
    02:00 +20°C° 0 mm 2 mps 649 mmHg 64%
    03:00 +20°C° 0.1 mm 3 mps 649 mmHg 68%
    04:00 +19°C° 0.1 mm 4 mps 650 mmHg 72%
    05:00 +19°C° 0.1 mm 5 mps 650 mmHg 75%
    06:00 +19°C° 0 mm 6 mps 650 mmHg 74%
    07:00 +19°C° 0 mm 6 mps 651 mmHg 74%
    08:00 +18°C° 0 mm 7 mps 651 mmHg 73%
    09:00 +20°C° 0 mm 7 mps 651 mmHg 70%
    10:00 +21°C° 0 mm 7 mps 652 mmHg 67%
    11:00 +21°C° 0 mm 7 mps 652 mmHg 64%
    12:00 +23°C° 0 mm 7 mps 652 mmHg 59%
    13:00 +24°C° 0 mm 6 mps 652 mmHg 55%
    14:00 +26°C° 0 mm 6 mps 652 mmHg 50%
    15:00 +26°C° 0 mm 6 mps 652 mmHg 51%
    16:00 +26°C° 0 mm 6 mps 651 mmHg 53%
    17:00 +24°C° 0 mm 6 mps 651 mmHg 54%
    18:00 +23°C° 0 mm 5 mps 651 mmHg 58%
    19:00 +22°C° 0 mm 4 mps 651 mmHg 63%
    20:00 +20°C° 0 mm 4 mps 651 mmHg 67%
    21:00 +20°C° 0 mm 4 mps 651 mmHg 69%
    22:00 +19°C° 0 mm 4 mps 652 mmHg 72%
    23:00 +19°C° 0 mm 4 mps 652 mmHg 74%

    Tomorrow, 27 February, Tuesday

    Time Temperature Precipitation Wind Pressure Humidity
    00:00 +18°C° 0 mm 3 mps 651 mmHg 76%
    01:00 +18°C° 0 mm 3 mps 651 mmHg 78%
    02:00 +18°C° 0 mm 3 mps 651 mmHg 81%
    03:00 +17°C° 0 mm 3 mps 651 mmHg 83%
    04:00 +17°C° 0 mm 3 mps 651 mmHg 85%
    05:00 +15°C° 0 mm 4 mps 650 mmHg 87%
    06:00 +17°C° 0 mm 4 mps 651 mmHg 84%
    07:00 +18°C° 0 mm 4 mps 652 mmHg 81%
    08:00 +17°C° 0 mm 5 mps 652 mmHg 77%
    09:00 +20°C° 0 mm 5 mps 652 mmHg 70%
    10:00 +22°C° 0 mm 5 mps 653 mmHg 63%
    11:00 +25°C° 0 mm 5 mps 653 mmHg 56%
    12:00 +25°C° 0 mm 5 mps 653 mmHg 54%
    13:00 +26°C° 0 mm 5 mps 652 mmHg 52%
    14:00 +26°C° 0 mm 5 mps 652 mmHg 50%
    15:00 +26°C° 0 mm 4 mps 652 mmHg 49%
    16:00 +27°C° 0 mm 4 mps 652 mmHg 49%
    17:00 +27°C° 0 mm 4 mps 651 mmHg 48%
    18:00 +25°C° 0 mm 3 mps 651 mmHg 54%
    19:00 +24°C° 0 mm 3 mps 651 mmHg 59%
    20:00 +21°C° 0 mm 3 mps 651 mmHg 65%
    21:00 +20°C° 0 mm 2 mps 651 mmHg 69%
    22:00 +19°C° 0 mm 2 mps 651 mmHg 72%
    23:00 +19°C° 0 mm 2 mps 651 mmHg 76%

    Day after tomorrow, 28 February, Wednesday

    Time Temperature Precipitation Wind Pressure Humidity
    00:00 +19°C° 0 mm 1 mps 651 mmHg 78%
    01:00 +19°C° 0 mm 1 mps 651 mmHg 80%
    02:00 +18°C° 0 mm 1 mps 650 mmHg 82%
    03:00 +18°C° 0 mm 1 mps 650 mmHg 83%
    04:00 +18°C° 0 mm 1 mps 650 mmHg 83%
    05:00 +16°C° 0 mm 1 mps 650 mmHg 83%
    06:00 +19°C° 0 mm 1 mps 650 mmHg 76%
    07:00 +20°C° 0 mm 1 mps 651 mmHg 70%
    08:00 +22°C° 0 mm 1 mps 652 mmHg 63%
    09:00 +24°C° 0 mm 2 mps 652 mmHg 56%
    10:00 +26°C° 0 mm 3 mps 653 mmHg 49%
    11:00 +28°C° 0 mm 3 mps 653 mmHg 42%
    12:00 +28°C° 0 mm 3 mps 653 mmHg 41%
    13:00 +29°C° 0 mm 3 mps 652 mmHg 40%
    14:00 +29°C° 0 mm 4 mps 652 mmHg 39%
    15:00 +29°C° 0 mm 4 mps 651 mmHg 38%
    16:00 +29°C° 0 mm 3 mps 651 mmHg 37%
    17:00 +30°C° 0 mm 3 mps 651 mmHg 36%
    18:00 +28°C° 0 mm 3 mps 650 mmHg 40%
    19:00 +26°C° 0 mm 3 mps 650 mmHg 44%
    20:00 +24°C° 0 mm 2 mps 650 mmHg 49%
    21:00 +23°C° 0 mm 2 mps 650 mmHg 52%
    22:00 +23°C° 0 mm 2 mps 650 mmHg 55%
    23:00 +21°C° 0 mm 2 mps 650 mmHg 57%

    1 March, Thursday

    Time Temperature Precipitation Wind Pressure Humidity
    00:00 +20°C° 0.1 mm 2 mps 650 mmHg 60%
    01:00 +21°C° 0.1 mm 1 mps 650 mmHg 63%
    02:00 +20°C° 0.1 mm 1 mps 649 mmHg 66%
    03:00 +19°C° 0 mm 2 mps 649 mmHg 68%
    04:00 +19°C° 0 mm 2 mps 649 mmHg 69%
    05:00 +19°C° 0 mm 2 mps 649 mmHg 71%
    06:00 +20°C° 0 mm 2 mps 650 mmHg 70%
    07:00 +21°C° 0 mm 3 mps 651 mmHg 69%
    08:00 +22°C° 0 mm 3 mps 652 mmHg 68%
    09:00 +25°C° 0.1 mm 4 mps 652 mmHg 62%
    10:00 +26°C° 0.1 mm 4 mps 653 mmHg 55%
    11:00 +28°C° 0.1 mm 5 mps 653 mmHg 48%
    12:00 +29°C° 0.1 mm 5 mps 653 mmHg 42%
    13:00 +30°C° 0.1 mm 5 mps 652 mmHg 37%
    14:00 +32°C° 0.1 mm 5 mps 652 mmHg 31%
    15:00 +32°C° 0 mm 4 mps 651 mmHg 30%
    16:00 +32°C° 0 mm 4 mps 651 mmHg 29%
    17:00 +32°C° 0 mm 4 mps 650 mmHg 28%
    18:00 +28°C° 0 mm 4 mps 650 mmHg 32%
    19:00 +26°C° 0 mm 3 mps 650 mmHg 36%
    20:00 +24°C° 0 mm 3 mps 649 mmHg 40%
    21:00 +23°C° 0 mm 2 mps 649 mmHg 43%
    22:00 +21°C° 0 mm 2 mps 649 mmHg 46%
    23:00 +22°C° 0 mm 1 mps 649 mmHg 49%

    2 March, Friday

    Time Temperature Precipitation Wind Pressure Humidity
    00:00 +21°C° 0 mm 1 mps 649 mmHg 51%
    01:00 +21°C° 0 mm 1 mps 649 mmHg 52%
    02:00 +21°C° 0 mm 1 mps 649 mmHg 54%
    03:00 +20°C° 0 mm 1 mps 649 mmHg 55%
    04:00 +19°C° 0 mm 2 mps 649 mmHg 55%
    05:00 +19°C° 0 mm 2 mps 649 mmHg 55%
    06:00 +20°C° 0 mm 3 mps 650 mmHg 58%
    07:00 +20°C° 0 mm 4 mps 651 mmHg 61%
    08:00 +21°C° 0 mm 4 mps 651 mmHg 64%
    09:00 +22°C° 0 mm 5 mps 651 mmHg 60%
    10:00 +23°C° 0 mm 5 mps 652 mmHg 56%
    11:00 +25°C° 0 mm 5 mps 652 mmHg 52%
    12:00 +26°C° 0 mm 5 mps 652 mmHg 46%
    13:00 +27°C° 0 mm 5 mps 651 mmHg 39%
    14:00 +28°C° 0 mm 5 mps 651 mmHg 33%
    15:00 +28°C° 0 mm 5 mps 651 mmHg 33%
    16:00 +27°C° 0 mm 4 mps 650 mmHg 33%
    17:00 +27°C° 0 mm 4 mps 650 mmHg 32%
    18:00 +25°C° 0 mm 4 mps 650 mmHg 36%
    19:00 +23°C° 0 mm 4 mps 650 mmHg 39%
    20:00 +21°C° 0 mm 3 mps 650 mmHg 42%
    21:00 +20°C° 0 mm 3 mps 650 mmHg 46%
    22:00 +20°C° 0 mm 3 mps 650 mmHg 50%
    23:00 +19°C° 0 mm 3 mps 650 mmHg 53%

    3 March, Saturday

    Time Temperature Precipitation Wind Pressure Humidity
    00:00 +18°C° 0 mm 3 mps 650 mmHg 55%
    01:00 +18°C° 0 mm 3 mps 650 mmHg 57%
    02:00 +17°C° 0 mm 3 mps 650 mmHg 59%
    03:00 +17°C° 0 mm 3 mps 649 mmHg 60%
    04:00 +17°C° 0 mm 3 mps 649 mmHg 60%
    05:00 +17°C° 0 mm 3 mps 649 mmHg 61%
    06:00 +17°C° 0 mm 3 mps 650 mmHg 63%
    07:00 +17°C° 0 mm 4 mps 651 mmHg 65%
    08:00 +18°C° 0 mm 4 mps 651 mmHg 66%
    09:00 +20°C° 0 mm 4 mps 652 mmHg 58%
    10:00 +22°C° 0 mm 5 mps 652 mmHg 50%
    11:00 +25°C° 0 mm 5 mps 653 mmHg 42%
    12:00 +26°C° 0 mm 5 mps 652 mmHg 38%
    13:00 +27°C° 0 mm 5 mps 652 mmHg 35%
    14:00 +29°C° 0 mm 5 mps 652 mmHg 31%
    15:00 +28°C° 0 mm 5 mps 651 mmHg 32%
    16:00 +27°C° 0 mm 5 mps 651 mmHg 33%
    17:00 +27°C° 0 mm 5 mps 650 mmHg 34%
    18:00 +25°C° 0 mm 5 mps 650 mmHg 40%
    19:00 +22°C° 0 mm 5 mps 650 mmHg 47%
    20:00 +20°C° 0 mm 4 mps 650 mmHg 54%
    21:00 +19°C° 0 mm 4 mps 650 mmHg 57%
    22:00 +19°C° 0 mm 4 mps 650 mmHg 60%
    23:00 +18°C° 0 mm 3 mps 650 mmHg 63%
    Show more